Regional Weather Roundup
Issued by NWS Cleveland, OH

Home | Current Version | Previous Version | Text Only | Print | Product List | Glossary Off
Versions: 1 2 3 4 5 6 7 8 9 10 11 12 13 14 15 16 17 18 19 20 21 22 23 24 25 26 27 28 29 30 31 32 33 34 35 36 37 38 39 40 41 42 43 44 45 46 47 48 49 50

000
ASUS41 KCLE 112310
RWRCLE
OHIO REGIONAL WEATHER ROUNDUP
NATIONAL WEATHER SERVICE WILMINGTON, OH
600 PM EST THU FEB 11 2016

NOTE: "FAIR" INDICATES FEW OR NO CLOUDS BELOW 12,000 FEET WITH NO
SIGNIFICANT WEATHER AND/OR OBSTRUCTIONS TO VISIBILITY.

OHZ001>008-015>018-024>027-034-035-043-044-120000-
   NORTHWEST OHIO

CITY           SKY/WX    TMP DP  RH WIND       PRES   REMARKS
DEFIANCE       MOCLDY    20   7  57 NW6       30.27S WCI  12
FINDLAY        CLOUDY    20   4  50 W7        30.26R WCI  11
TOLEDO EXPRESS MOCLDY    19   4  51 W6        30.25S WCI  11
TOLEDO EXEC    CLOUDY    21   4  47 W12       30.26S WCI   9
LIMA           CLOUDY    20   7  57 W10       30.25S WCI   9
$$

OHZ009>014-019>023-028>033-038-089-120000-
   NORTHEAST OHIO

CITY           SKY/WX    TMP DP  RH WIND       PRES   REMARKS
CLE-HOPKINS    LGT SNOW  17   9  70 W7        30.27S WCI   8
CLE-LAKEFRONT  FLURRIES  20   6  55 W15       30.24S WCI   6
CUY CO. ARPT   MOCLDY    19   5  53 NW15G24   30.24R WCI   5
LORAIN-ELYRIA  CLOUDY    17   5  59 W8        30.25S WCI   7
ASHTABULA      CLOUDY    16   2  54 NW7       30.22R WCI   6
AKRON-CANTON   FAIR      16   2  54 W13G18    30.22R WCI   2
WOOSTER        MOCLDY    11   1  64 NW6       30.24R WCI   1
MANSFIELD      CLOUDY    15   3  59 W3        30.23R
YOUNGSTOWN     FLURRIES  15   6  67 W7        30.20R WCI   5
$$

OHZ042-051>053-060>062-070>072-077>081-120000-
  SOUTHWEST OHIO

CITY           SKY/WX    TMP DP  RH WIND       PRES   REMARKS
CINC-COVINGTON FAIR      24   4  42 CALM      30.28S
CINC-LUNKEN    FAIR      24   3  40 N5        30.33R WCI  18
HAMILTON       FAIR      22   4  46 NW6       30.32R WCI  14
DAYTON         MOCLDY    20   7  57 NW6       30.27S WCI  12
WRIGHT-PAT AFB MOCLDY    21   5  50 NW8       30.28R WCI  11
DAYTON GENERAL FAIR      21   4  47 W5        30.27R WCI  15
WILMINGTON     MOCLDY    20   5  52 NW5       30.27R WCI  13
$$

OHZ036-037-039>041-045>050-054>059-063>069-073>076-082>088-120000-
  CENTRAL AND SOUTHEAST OHIO

CITY           SKY/WX    TMP DP  RH WIND       PRES   REMARKS
COLUMBUS       MOCLDY    18   8  65 W5        30.28R WCI  11
OSU AIRPORT    CLOUDY    19   9  65 CALM      30.27R
BOLTON FIELD   MOCLDY    18   9  68 W5        30.29R WCI  11
RICKENBACK AFB MOCLDY    19   7  60 W6        30.29R WCI  11
NEWARK         FAIR      18   4  54 W3        30.27R
MARION         CLOUDY    19   4  51 NW7       30.26R WCI  10
LANCASTER      MOCLDY    18   7  62 W6        30.28R WCI  10
ZANESVILLE     FAIR      20   5  52 NW7       30.27R WCI  11
NEW PHILLY     FAIR      17   0  47 NW10      30.27R WCI   5
$$



USA.gov is the U.S. government's official web portal to all federal, state and local government web resources and services.